Voltar ao catálogo

SCATSAT 1

AtivoMeteoSSO
NORAD 41790·PAYLOAD·🇮🇳 India

Lançado Sep 26, 2016 de Satish Dhawan Space Centre

Loading…

Próximas Passagens (próximas 24 horas)

TLE

AtualizadoSource: Space-Track

Época: Sep 13, 2026, 17:39 UTC

1 41790U 16059H   26256.73552014  .00000719  00000-0  10106-3 0  9998
2 41790  98.1107 321.3832 0053556 323.7297  36.0287 14.79701753114688

Acompanhe SCATSAT 1 em tempo real com AllMySat

Download on the App Store